Fort Smith, AR

11:22 AM CST on February 23, 2017 (GMT -0600)
Fort Smith Regional

Weather History for KFSM - February, 2013

Change the Weather History Date:

Monday, February 25, 2013

  Actual Average Record
Temperature  
Mean Temperature 46 °F 47 °F  
Max Temperature 49 °F 59 °F 80 °F (1917)
Min Temperature 43 °F 36 °F 12 °F (1967)
Degree Days  
Heating Degree Days 19 18  
Month to date heating degree days 493 531  
Since 1 July heating degree days 2252 2622  
Moisture  
Dew Point 40 °F    
Average Humidity 77    
Maximum Humidity 100    
Minimum Humidity 53    
Precipitation  
Precipitation 0.85 in 0.11 in 1.09 in (1899)
Month to date precipitation 4.44 2.45  
Year to date precipitation 8.41 5.26  
Sea Level Pressure  
Sea Level Pressure 29.55 in    
Wind  
Wind Speed 11 mph (ENE)    
Max Wind Speed 30 mph    
Max Gust Speed 38 mph    
Visibility 8 miles    
Events Rain    
T = Trace of Precipitation, MM = Missing Value Source: NWS Daily Summary

Daily Weather History Graph

Daily Weather History Graph

Search for Another Location

Airport or City:

Trip Planner

Search our weather history database for the weather conditions in past years. The results will help you decide how hot, cold, wet, or windy it might be!

Date:

Astronomy

Feb. 25, 2013 Rise Set
Actual Time 6:51 AM CST 6:09 PM CST
Civil Twilight 6:26 AM CST 6:35 PM CST
Nautical Twilight 5:56 AM CST 7:04 PM CST
Astronomical Twilight 5:27 AM CST 7:34 PM CST
Moon 6:21 PM CST (2/25) 6:23 AM CST (2/25)
Length of Visible Light 12h 08m
Length of Day
11h 17m
Full, 100% of the Moon is Illuminated
Feb 25
Full
Feb 25
Full
Mar 4
Last Quarter
Mar 11
New
Mar 19
First Quarter

Hourly Weather History & Observations

Time (CST) Temp. Windchill Dew Point Humidity Pressure Visibility Wind Dir Wind Speed Gust Speed Precip Events Conditions
12:53 AM 43.0 °F 37.7 °F 34.0 °F 71% 29.83 in 10.0 mi ENE 9.2 mph - N/A   Clear
1:53 AM 45.0 °F 40.1 °F 35.1 °F 68% 29.84 in 10.0 mi East 9.2 mph - N/A   Mostly Cloudy
2:53 AM 45.0 °F 39.7 °F 33.1 °F 63% 29.78 in 10.0 mi East 10.4 mph - N/A   Mostly Cloudy
3:53 AM 45.0 °F 39.7 °F 33.1 °F 63% 29.78 in 10.0 mi East 10.4 mph 19.6 mph N/A   Overcast
4:53 AM 46.0 °F 40.2 °F 32.0 °F 58% 29.78 in 10.0 mi East 12.7 mph - N/A   Overcast
5:53 AM 46.0 °F 40.6 °F 32.0 °F 58% 29.77 in 10.0 mi East 11.5 mph - N/A   Overcast
6:53 AM 46.9 °F - 30.9 °F 54% 29.72 in 10.0 mi East 13.8 mph 25.3 mph N/A   Scattered Clouds
7:53 AM 46.0 °F 40.2 °F 32.0 °F 58% 29.68 in 10.0 mi East 12.7 mph - N/A   Scattered Clouds
8:53 AM 46.0 °F 37.6 °F 32.0 °F 58% 29.62 in 10.0 mi ENE 24.2 mph 29.9 mph 0.00 in   Mostly Cloudy
9:53 AM 46.9 °F - 35.1 °F 63% 29.65 in 7.0 mi East 9.2 mph - 0.03 in Rain Light Rain
10:10 AM 42.8 °F 38.6 °F 41.0 °F 93% 29.64 in 2.5 mi ENE 6.9 mph - 0.20 in Rain Rain
10:17 AM 44.6 °F 39.7 °F 39.2 °F 81% 29.64 in 5.0 mi NE 9.2 mph - 0.21 in Rain Light Rain
10:53 AM 46.9 °F - 37.0 °F 68% 29.59 in 10.0 mi ENE 18.4 mph - 0.21 in   Overcast
11:53 AM 48.9 °F - 35.1 °F 59% 29.50 in 10.0 mi East 17.3 mph 26.5 mph N/A   Overcast
12:33 PM 48.2 °F - 37.4 °F 66% 29.58 in 6.0 mi WSW 26.5 mph 32.2 mph 0.00 in Rain Rain
12:39 PM 46.4 °F 39.5 °F 41.0 °F 81% 29.58 in 2.5 mi West 17.3 mph 38.0 mph 0.03 in Rain Rain
12:46 PM 44.6 °F 36.9 °F 41.0 °F 87% 29.60 in 1.0 mi West 18.4 mph 29.9 mph 0.27 in Rain Heavy Rain
12:53 PM 44.1 °F 40.8 °F 42.1 °F 93% 29.57 in 1.5 mi WNW 5.8 mph - 0.32 in Rain Heavy Rain
1:05 PM 44.6 °F 39.7 °F 42.8 °F 93% 29.52 in 4.0 mi North 9.2 mph - 0.12 in Rain Light Rain
1:12 PM 44.6 °F 43.1 °F 42.8 °F 93% 29.54 in 4.0 mi NE 3.5 mph - 0.12 in Rain Light Rain
1:26 PM 44.6 °F 41.4 °F 44.6 °F 100% 29.51 in 2.5 mi NNE 5.8 mph - 0.17 in Rain Light Rain
1:50 PM 44.6 °F 42.2 °F 44.6 °F 100% 29.52 in 2.5 mi NNE 4.6 mph - 0.20 in Rain Light Rain
1:53 PM 45.0 °F 43.5 °F 44.1 °F 97% 29.53 in 2.5 mi North 3.5 mph - 0.21 in Rain Light Rain
2:12 PM 44.6 °F 40.2 °F 44.6 °F 100% 29.51 in 9.0 mi NE 8.1 mph - 0.00 in   Overcast
2:20 PM 44.6 °F 39.2 °F 44.6 °F 100% 29.51 in 10.0 mi ENE 10.4 mph - 0.00 in   Overcast
2:40 PM 44.6 °F 39.7 °F 44.6 °F 100% 29.49 in 10.0 mi NE 9.2 mph - 0.00 in   Overcast
2:53 PM 45.0 °F 39.3 °F 44.1 °F 97% 29.49 in 10.0 mi NE 11.5 mph - 0.00 in   Overcast
3:22 PM 46.4 °F 42.4 °F 44.6 °F 93% 29.47 in 10.0 mi East 8.1 mph - N/A   Overcast
3:53 PM 45.0 °F 40.1 °F 44.1 °F 97% 29.47 in 9.0 mi ENE 9.2 mph - N/A   Overcast
4:10 PM 46.4 °F 41.5 °F 44.6 °F 93% 29.45 in 10.0 mi ENE 10.4 mph - N/A   Overcast
4:21 PM 46.4 °F 41.5 °F 44.6 °F 93% 29.44 in 10.0 mi ENE 10.4 mph - N/A   Overcast
4:38 PM 46.4 °F 41.1 °F 44.6 °F 93% 29.44 in 10.0 mi East 11.5 mph - N/A   Overcast
4:53 PM 46.9 °F - 43.0 °F 86% 29.44 in 10.0 mi East 15.0 mph - N/A   Overcast
5:45 PM 46.4 °F 40.7 °F 42.8 °F 87% 29.45 in 2.0 mi East 12.7 mph - N/A Rain Light Rain
5:53 PM 46.0 °F 40.2 °F 43.0 °F 89% 29.45 in 3.0 mi East 12.7 mph 21.9 mph 0.00 in Rain Light Rain
6:01 PM 46.4 °F 40.1 °F 44.6 °F 93% 29.45 in 2.0 mi East 15.0 mph 20.7 mph 0.00 in   Overcast
6:53 PM 46.0 °F 41.4 °F 43.0 °F 89% 29.46 in 2.0 mi ESE 9.2 mph - 0.06 in Rain Light Rain
7:00 PM 46.4 °F 41.9 °F 42.8 °F 87% 29.46 in 6.0 mi ESE 9.2 mph - 0.01 in Rain Light Rain
7:23 PM 46.4 °F 42.4 °F 42.8 °F 87% 29.46 in 4.0 mi ESE 8.1 mph - 0.02 in Rain Light Rain
7:53 PM 46.0 °F 41.4 °F 44.1 °F 93% 29.44 in 4.0 mi East 9.2 mph - 0.02 in Rain Light Rain
8:53 PM 46.0 °F 41.9 °F 44.1 °F 93% 29.43 in 10.0 mi ESE 8.1 mph - 0.00 in   Mostly Cloudy
9:28 PM 44.6 °F - 44.6 °F 100% 29.42 in 10.0 mi Calm Calm - N/A   Overcast
9:53 PM 45.0 °F 43.5 °F 42.1 °F 90% 29.42 in 10.0 mi East 3.5 mph - N/A   Mostly Cloudy
10:53 PM 44.1 °F 40.8 °F 42.1 °F 93% 29.42 in 10.0 mi SSE 5.8 mph - N/A   Overcast
11:39 PM 44.6 °F - 41.0 °F 87% 29.40 in 9.0 mi Calm Calm - N/A   Overcast
11:45 PM 44.6 °F - 42.8 °F 93% 29.40 in 9.0 mi Calm Calm - N/A   Overcast
11:53 PM 45.0 °F 42.6 °F 42.1 °F 90% 29.40 in 9.0 mi South 4.6 mph - N/A   Overcast